Other Public Products
Issued by NWS Grand Forks, ND

Home | Current Version | Previous Version | Text Only | Print | Product List | Glossary Off
Versions: 1 2 3 4 5 6 7 8 9 10 11 12 13 14 15 16 17 18 19 20 21 22 23 24 25 26 27 28 29 30 31 32 33 34 35 36 37 38 39 40 41 42 43 44 45 46 47 48 49 50

000
FPUS83 KFGF 301110
OPUFGF
PRAIRIE TO PINES WEATHER ROUNDUP
NATIONAL WEATHER SERVICE EASTERN NORTH DAKOTA/GRAND FORKS ND
600 AM CDT TUE AUG 30 2016

 **SATELLITE DATA USED TO AUGMENT SKY COVER AT AUTOMATED STATIONS**
 *****  WEATHER ACROSS EASTERN NORTH DAKOTA  *****

CITY           SKY/WX    TMP DP  RH WIND       PRES   REMARKS
GRAND FORKS    CLEAR     49  46  90 NW5       30.23S
GRAND FORKS AF CLEAR     49  47  94 NW3       30.24S
GRAND CITY NWS   N/A     50 N/A N/A N2          N/A
BUXTON           N/A     56  55  95 CALM        N/A
DEVILS LAKE    CLEAR     52  49  89 CALM      30.27R
FARGO          CLEAR     50  46  86 CALM      30.24R
WAHPETON ARPT  MOSUNNY   50  46  87 CALM      30.23S
$$

 *****  WEATHER ACROSS CENTRAL AND WESTERN NORTH DAKOTA  *****

CITY           SKY/WX    TMP DP  RH WIND       PRES   REMARKS
JAMESTOWN      CLEAR     52  48  86 CALM      30.25S
BISMARCK       CLEAR     46  45  96 CALM      30.26S
MINOT          CLEAR     53  47  79 SW3       30.24R
MINOT AFB      CLEAR     51  45  78 NE3       30.24R
GARRISON         N/A     47  46  97 E3        30.24S
WILLISTON      CLEAR     50  42  74 CALM      30.21S
DICKINSON      CLEAR     52  47  83 S13       30.23S
HETTINGER      CLEAR     56  50  80 SE8       30.26S
$$

 *****  OTHER OBSERVATIONS NORTHEAST NORTH DAKOTA  *****

CITY           SKY/WX    TMP DP  RH WIND       PRES   REMARKS
WALHALLA       NOT AVBL
LANGDON        FAIR      46  45  93 CALM      30.26S
CAVALIER       FAIR      50  48  93 W3        30.24S
GRAFTON        FAIR      50  50 100 CALM      30.26S
CANDO          NOT AVBL
FORT TOTTEN      N/A     52  49  91 CALM      29.95S
ROLLA          FAIR      46  45  93 W3        30.29R
RUGBY          FAIR      48  48 100 SE3       30.26R
 ***** THE ABOVE OBSERVATIONS ARE NON NWS ARE NOT QUALITY
        CONTROLLED AND MAY MIS-REPORT RAIN FOR SNOW...
$$

 *****  OTHER OBSERVATIONS SOUTHEAST NORTH DAKOTA *****

CITY           SKY/WX    TMP DP  RH WIND       PRES   REMARKS
COOPERSTOWN    NOT AVBL
VALLEY CITY    FAIR      50  50 100 N3        30.27S
OAKES            N/A    N/A N/A N/A MISG        N/A
GWINNER        FAIR      54  52  94 N7        30.25S
SHEYENNE NWR     N/A     50  47  90 CALM      29.95S
BUFFALO          N/A     51  48  90 NW5         N/A
WYNDMERE       NOT AVBL
 ***** THE ABOVE OBSERVATIONS ARE NON NWS ARE NOT QUALITY
       CONTROLLED AND MAY MIS-REPORT RAIN FOR SNOW...
$$

  *****  WEATHER ACROSS NORTHERN MINNESOTA  *****

CITY           SKY/WX    TMP DP  RH WIND       PRES   REMARKS
FLAG ISLAND    CLEAR     55  50  82 CALM      30.21S
WARROAD        NOT AVBL
ROSEAU         CLEAR     46  41  81 CALM      30.24S
HALLOCK        CLEAR     45  43  93 S3        30.24S
THF RVR FALLS  CLEAR     49  48  97 CALM      30.25S
HALSTAD          N/A     48  48  99 SW5         N/A
FOSSTON        CLOUDY    45  45 100 CALM      30.25S FOG
BAUDETTE       CLEAR     49  47  93 CALM      30.22S
WASKISH        CLEAR     48  46  93 CALM      30.23S FOG
CROOKSTON      CLEAR     50  48  93 CALM      30.25R
$$
  *****  WEATHER ACROSS CENTRAL AND WEST MINNESOTA  *****

CITY           SKY/WX    TMP DP  RH WIND       PRES   REMARKS
BEMIDJI        CLEAR     46  45  97 W3        30.23S
PARK RAPIDS    CLEAR     53  51  93 NW5       30.23S
WADENA         CLEAR     54  52  94 N6        30.22S
DETROIT LAKES  CLEAR     59  55  88 CALM      30.25S
MOORHEAD       CLEAR     50  48  93 CALM      30.25R
FERGUS FALLS   CLEAR     59  57  94 NE3       30.24S
ELBOW LAKE     FAIR      58  58 100 N5        30.22S
MORRIS MN      CLOUDY    61  59  94 N2        30.20S
STAPLES        CLEAR     54  52  94 CALM      30.22R
WHEATON        NOT AVBL
$$
  *****  WEATHER ELSEWHERE ACROSS MINNESOTA  *****

CITY           SKY/WX    TMP DP  RH WIND       PRES   REMARKS
DULUTH         PTCLDY    63  62  97 N8        30.16R
INTRNTL FALLS  CLEAR     48  47  96 NW6       30.20F
ELY            FOG       54  52  94 CALM      30.17S VSB 1
CLOQUET        CLEAR     61  57  88 NW6       30.17S
BRAINERD       CLEAR     61  57  87 N8        30.21R
HIBBING        CLEAR     51  51 100 NW6       30.19S FOG
ALEXANDRIA     CLEAR     61  58  90 N7        30.23S
SAINT CLOUD    CLOUDY    62  62 100 NW3       30.18R
MINNEAPOLIS    CLOUDY    67  64  90 NW6       30.15R
$$

  *****  WEATHER ACROSS SOUTH DAKOTA  *****

CITY           SKY/WX    TMP DP  RH WIND       PRES   REMARKS
SIOUX FALLS    CLOUDY    68  66  93 NE3       30.19S
BROOKINGS      CLOUDY    67  64  90 MISG        N/A
WATERTOWN      CLOUDY    64  60  87 N5        30.22F
HURON          PTCLDY    69  65  86 E8        30.18S
SISSETON         N/A     55  53  93 N5        30.22S
ABERDEEN       CLEAR     55  52  89 N7        30.24R
MITCHELL       MOCLDY    67  66  97 E3        30.19R
PIERRE         CLOUDY    64  59  83 NE10      30.17S
MOBRIDGE       MOCLDY    58  50  75 CALM      30.22R
RAPID CITY     PTCLDY    63  62  97 E6        30.25S
$$

  *****  SOME WEATHER IN NEARBY STATES *****

CITY           SKY/WX    TMP DP  RH WIND       PRES   REMARKS
GLASGOW MT     CLOUDY    62  45  53 E10       30.13R
GREAT FALLS MT PTCLDY    56  44  64 N7        30.10S
CHEYENNE WY    CLOUDY    54  42  64 NW3       30.37S
SCOTTSBLUFF NE CLOUDY    57  55  93 CALM      30.27S
OMAHA NE       CLOUDY    69  66  90 CALM      30.19R
DES MOINES IA  CLOUDY    71  70  96 W3        30.17R FOG
DAVENPORT IA   RAIN      70  69  97 S6        30.17R FOG
CHICAGO IL     TSTM      74  72  93 CALM      30.14S FOG
EAU CLAIRE WI  CLOUDY    67  62  84 NE8       30.11R
LA CROSSE WI   CLOUDY    71  71 100 CALM      30.13F FOG
$$

  *****  SOME NATIONAL WEATHER *****

CITY           SKY/WX    TMP DP  RH WIND       PRES   REMARKS
LA GUARDIA NY  PTCLDY    73  60  63 E8        30.16R
RALEIGH NC     PTCLDY    68  65  90 CALM      30.10R
ATLANTA GA     CLEAR     73  69  87 NE9       30.09R
NEW ORLEANS LA PTCLDY    82  78  88 N8        29.92S HX  91
OKLAHOMA CITY  MOCLDY    71  69  93 CALM      30.11R
ALBUQUERQUE NM CLEAR     62  50  64 E20       30.31S
SALT LAKE CITY PTCLDY    67  37  33 SE6       30.13R
LOS ANGELES CA CLEAR     68  63  84 CALM      29.86S
BOISE ID       MOCLDY    68  40  35 SE5       29.98S
SEATTLE WA     CLOUDY    59  52  77 S7        30.06S
$$

*** WEATHER ACROSS MANITOBA...SASKATCHEWAN AND ONTARIO ***
                ***ONTARIO***

CITY           SKY/WX    TMP DP  RH WIND       PRES   REMARKS
GERALDTON      MOCLDY    61  59  94 NW5       30.06R
THUNDER BAY    CLEAR     57  55  94 W3        30.10R
SIOUX LOOKOUT  CLEAR     48  48 100 W5        30.15F
TORONTO        PTCLDY    64  54  68 VRB2      30.16S
BIG TROUT LK   MOCLDY    57  52  82 W9        29.94F
PICKLE LAKE    MOCLDY    54  48  82 W9        30.08
DRYDEN         CLEAR     48  48 100 W7        30.18F
KENORA         PTCLDY    55  50  82 W7        30.21S
$$
                *** MANITOBA***

CITY           SKY/WX    TMP DP  RH WIND       PRES   REMARKS
BRANDON        PTCLDY    45  41  87 N3        30.26S
DAUPHIN        CLEAR     46  43  87 W8        30.25R
ISLAND LAKE    CLOUDY    55  52  88 NW13G23   30.06R
PILOT MOUND      N/A     50  46  87 N5          N/A
THE PAS        PTCLDY    50  46  87 W6        30.22R
THOMPSON       CLOUDY    52  50  93 NW7       30.10R
WINNIPEG       NOT AVBL
LYNN LAKE      CLOUDY    50  50 100 MISG      30.18R
CHURCHILL      LGT RAIN  46  46 100 N21G28    30.05R FOG
GILLAM         CLOUDY    50  48  93 N20       30.01R
$$
                ***SASKATCHEWAN***

CITY           SKY/WX    TMP DP  RH WIND       PRES   REMARKS
ESTEVAN        PTCLDY    52  43  71 E7        30.23F
KINDERSLEY     CLOUDY    54  46  76 E15       30.16F
LLOYDMINSTER   CLEAR     43  41  93 E7        30.24F
PRINCE ALBERT  PTCLDY    37  36  93 W2        30.29R
REGINA         PTCLDY    55  45  67 E9        30.23F
YORKTON        CLEAR     46  45  93 CALM      30.26S   C1F1C2F2C3F3C4F4C5F5C6F6C7F7C8F8C9F9CaFaCbFbCcFcCdFdCe!



USA.gov is the U.S. government's official web portal to all federal, state and local government web resources and services.